Regional Weather Roundup
Issued by NWS

Home | Current Version | Previous Version | Graphics & Text | Print | Product List | Glossary On
Versions: 1 2 3 4 5 6 7 8 9 10 11 12 13 14 15 16 17 18 19 20 21 22 23 24 25 26 27 28 29 30 31 32 33 34 35 36 37 38 39 40 41 42 43 44 45 46 47 48 49 50
000
ASUS45 KBOU 050507
RWRCO

WEATHER ROUNDUP FOR COLORADO
NATIONAL WEATHER SERVICE DENVER/BOULDER CO
1000 PM MST SUN DEC 04 2016

NOTE: "FAIR" INDICATES FEW OR NO CLOUDS BELOW 12000 FEET WITH NO
SIGNIFICANT WEATHER AND/OR OBSTRUCTIONS TO VISIBILITY.

COZ001>005-013-030-031-050600-
...NORTHWEST COLORADO...

CITY           SKY/WX    TMP DP  RH WIND       PRES   REMARKS
CRAIG          CLOUDY    27  17  66 S3        29.87F
HAYDEN         CLOUDY    27  14  59 E10       29.86F WCI  17
MEEKER         FAIR      34  16  47 W12G21    29.89F WCI  25
MOUNT WERNER   NOT AVBL
STEAMBOAT SPGS CLOUDY    23  18  81 CALM      29.87
WALDEN           N/A     32  16  51 W17G29    29.84F WCI  21
$$

COZ006>008-011-050600-
...WEST CENTRAL VALLEYS...

CITY           SKY/WX    TMP DP  RH WIND       PRES   REMARKS
GRAND JUNCTION FAIR      25  18  74 E5        29.98F WCI  19
MONTROSE       FAIR      25  18  74 SE7       30.01F WCI  17
EAGLE          FAIR      28  17  63 E8        29.96F WCI  20
RIFLE          CLOUDY    30  21  69 CALM      29.98F
DELTA          NOT AVBL
NUCLA          MOCLDY    30  16  55 SE9       30.04F WCI  22
$$

COZ017>023-064>068-050600-
...SOUTHWEST COLORADO...

CITY           SKY/WX    TMP DP  RH WIND       PRES   REMARKS
DURANGO        FAIR      22  17  81 NE3       30.06F
CORTEZ         FAIR      21  17  84 NE3       30.06F
PAGOSA SPRINGS FAIR      22  20  91 CALM      30.07F
TELLURIDE      NOT AVBL
WOLF CREEK PAS FAIR      18   9  68 S8        30.12  WCI   7
$$

COZ009-010-012-014-032>034-037-058>063-050600-
...CENTRAL COLORADO...

CITY           SKY/WX    TMP DP  RH WIND       PRES   REMARKS
ASPEN          CLOUDY    25  18  74 VRB3      29.94F
BUENA VISTA    FAIR      38  12  34 N5G20     29.89F
COPPER MTN     LGT SNOW  25  14  63 MISG      29.96
BERTHOUD PASS  LGT SNOW  18   5  57 W30G41    29.90F WCI  -2
COTTONWOOD PAS FAIR      36  12  38 W35G55    29.88
GUNNISON       FAIR      10   6  84 CALM      30.04F
KREMMLING      MOCLDY    37  18  44 W5        29.89
LEADVILLE      FAIR      28  13  53 NE5       29.93F WCI  23
MONARCH PASS   FAIR      19  10  68 W38G45    30.08  WCI  -1
SALIDA         FAIR      41  13  31 SW20G28   29.96S
SUNLIGHT       CLOUDY    21  18  86 SW20G29   30.00  WCI   6
WILKERSON PASS MOCLDY    27  12  54 MISG      29.90
$$

COZ069>075-050600-
...SAN LUIS VALLEY/SANGRE DE CRISTO MOUNTAINS...

CITY           SKY/WX    TMP DP  RH WIND       PRES   REMARKS
ALAMOSA        FAIR       8   4  83 CALM      30.01F
LA VETA PASS   FAIR      25  10  54 NE21G36   29.93  WCI  10
SAGUACHE       FAIR      14   3  62 CALM      30.02
$$

COZ035-036-038>040-050600-
...NORTHERN COLORADO FRONT RANGE...

CITY           SKY/WX    TMP DP  RH WIND       PRES   REMARKS
DENVER INTL AP FAIR      33  13  43 S10       29.72F WCI  25
DMNS CITY PARK   N/A     37  11  33 SE10G24   29.72F
AURORA         PTCLDY    35  12  39 S15       29.73F WCI  26
FRONT RANGE AP NOT AVBL
ERIE MUNI ARPT FAIR      49  16  26 SW7       29.71
BOULDER MUN AP FAIR      50  19  29 S5        29.69F
CENTENNIAL     FAIR      35  14  42 SE12      29.74F WCI  27
BROOMFIELD     PTCLDY    37  10  32 VRB5      29.72F
FORT COLLINS   FAIR      48  19  32 W20G32    29.69F
LONGMONT       FAIR      42  14  32 CALM      29.71
$$

COZ041-046-047-076>085-087-088-050600-
...PIKES PEAK/PALMER DIVIDE AND SOUTHERN FOOTHILLS...

CITY           SKY/WX    TMP DP  RH WIND       PRES   REMARKS
COLO. SPRINGS  FAIR      28   9  44 N5        29.81F WCI  23
A. F. ACADEMY  FAIR      27  10  49 VRB5      29.78F WCI  22
SCHRIEVER AFB  NOT AVBL
ELLICOTT       FAIR     N/A N/A N/A S7        29.79F
FALCON         FAIR      31   8  37 SW8       29.81F WCI  24
FORT CARSON    FAIR      29  12  48 NW8       29.78F WCI  21
LIMON          FAIR      14   7  73 N5        29.78F WCI   6
MONUMENT HILL  FAIR      28  12  50 SE10      29.79  WCI  19
TRINIDAD       FAIR      43  13  29 W18       29.85F
$$

COZ042>045-048>051-090-091-050600-
...NORTHEAST COLORADO...

CITY           SKY/WX    TMP DP  RH WIND       PRES   REMARKS
GREELEY ARPT   FAIR      30  16  56 NE5       29.72F WCI  25
AKRON          FAIR      40  12  32 S13       29.72F
BURLINGTON     FAIR      32  14  47 S18       29.77F WCI  20
WRAY           NOT AVBL
STERLING       FAIR      36  16  44 SW7       29.72
HOLYOKE        FAIR      37  16  41 SW10      29.73F
FORT MORGAN    FAIR      35  11  37 W5        29.72F WCI  31
$$

COZ086-089-092>099-050600-
...SOUTHEAST COLORADO...

CITY           SKY/WX    TMP DP  RH WIND       PRES   REMARKS
PUEBLO         FAIR      26  11  52 NW6       29.80F WCI  19
LA JUNTA       FAIR      36  16  44 W17       29.80F
LAMAR          FAIR      23  12  62 CALM      29.79F
SPRINGFIELD      N/A     32  18  56 SW13      29.81F WCI  22
$$



USA.gov is the U.S. government's official web portal to all federal, state and local government web resources and services.